Location: Bremen
(53.0796°N, 8.8241°E)
Time: 11:32:51
(UTC+02:00)

ISS - Visible Passes

Search period start: 25 September 2017 00:00
Search period end: 05 October 2017 00:00
Orbit: 401 x 407 km, 51.6° (Epoch: 25 September)

Date Brightness Start Highest point End Pass type
(mag) Time Alt. Az. Time Alt. Az. Time Alt. Az.
26 Sep -1.6 20:28:50 10° SSE 20:29:49 12° SSE 20:29:49 12° SSE visible
27 Sep -2.1 21:11:00 10° SW 21:12:39 22° SSW 21:12:39 22° SSW visible
28 Sep -2.3 20:19:08 10° SSW 20:21:42 21° SSE 20:22:38 19° ESE visible
28 Sep -1.2 21:54:32 10° WSW 21:55:17 16° WSW 21:55:17 16° WSW visible
29 Sep -3.3 21:02:17 10° SW 21:05:07 43° S 21:05:07 43° S visible
30 Sep -2.9 20:10:08 10° SW 20:13:07 33° SSE 20:14:52 19° ESE visible
30 Sep -1.7 21:46:04 10° WSW 21:47:30 23° WSW 21:47:30 23° WSW visible
01 Oct -3.8 20:53:43 10° WSW 20:56:57 60° S 20:57:10 58° SSE visible
02 Oct -3.4 20:01:24 10° WSW 20:04:35 48° SSE 20:06:45 18° E visible
02 Oct -2.0 21:37:38 10° W 21:39:24 29° W 21:39:24 29° W visible
03 Oct -3.8 20:45:12 10° W 20:48:29 69° S 20:48:57 57° SE visible
04 Oct -3.7 19:52:48 10° WSW 19:56:02 63° S 19:58:28 17° E visible
04 Oct -2.2 21:29:08 10° W 21:31:06 32° WSW 21:31:06 32° WSW visible
